Hourly Data Report for September 21, 2017

All times are specified in Local Standard Time (LST). Add 1 hour to adjust for Daylight Saving Time where and when it is observed.

CORAL HARBOUR A
NUNAVUT

64°11'36.000" N
83°21'34.000" W
62.20 m
2301002
71915
YZS

Download Data

Hourly Data (September 2017)
Hourly Data Report for September 21, 2017
Temp Definition
°C
Dew Point Temp Definition
°C
Rel Hum Definition
%
Wind Dir Definition
10's deg

Wind Spd Definition
km/h
Visibility Definition
km
Stn Press Definition
kPa
Hmdx Definition


Wind Chill Definition


Weather Definition


TIME
00:00 Legend Double Dagger -0.5 -2.2 88 6 25 24.1 101.65   -7 LegendNANA
01:00 Legend Double Dagger -1.7 -2.8 92 6 9 24.1 101.56   -5 Clear
02:00 Legend Double Dagger -1.0 -2.7 89 6 14 24.1 101.52   -5 LegendNANA
03:00 Legend Double Dagger -1.3 -3.0 88 8 18 24.1 101.50   -7 LegendNANA
04:00 Legend Double Dagger -0.6 -2.1 90 17 14 24.1 101.49   -5 Clear
05:00 Legend Double Dagger 0.1 -1.3 90 6 13 24.1 101.39     LegendNANA
06:00 Legend Double Dagger 0.7 -0.8 90 5 15 24.1 101.27     LegendNANA
07:00 Legend Double Dagger 1.0 -0.8 88 6 40 24.1 101.15     Mostly Cloudy
08:00 Legend Double Dagger 1.3 -0.5 88 4 34 24.1 101.14     LegendNANA
09:00 Legend Double Dagger 1.5 -0.4 88 7 40 24.1 101.09     LegendNANA
10:00 Legend Double Dagger 1.8 0.1 88 6 28 24.1 101.00     Cloudy
11:00 Legend Double Dagger 2.5 0.5 87 6 31 24.1 100.94     LegendNANA
12:00 Legend Double Dagger 2.8 0.5 85 8 29 24.1 100.93     LegendNANA
13:00 Legend Double Dagger 2.9 0.4 83 7 32 24.1 100.90     Mostly Cloudy
14:00 Legend Double Dagger 3.2 0.3 81 7 33 24.1 100.86     LegendNANA
15:00 Legend Double Dagger 3.0 0.3 82 5 27 24.1 100.81     LegendNANA
16:00 Legend Double Dagger 3.0 0.3 82 5 33 24.1 100.80     Cloudy
17:00 Legend Double Dagger 2.2 0.0 85 5 26 24.1 100.81     LegendNANA
18:00 Legend Double Dagger 1.8 -0.5 85 6 25 24.1 100.83     LegendNANA
19:00 Legend Double Dagger 0.8 -1.6 84 6 25 24.1 100.87     Cloudy
20:00 Legend Double Dagger 0.4 -1.9 84 4 23 24.1 100.92     LegendNANA
21:00 Legend Double Dagger 0.2 -1.9 86 5 21 24.1 100.97     LegendNANA
22:00 Legend Double Dagger 0.0 -2.2 85 5 32 24.1 100.94   -7 Cloudy
23:00 Legend Double Dagger -0.2 -2.0 87 6 19 24.1 100.97   -5 LegendNANA

Notes on Data Quality.

Legend

  • E = Estimated
  • M = Missing
  • NA = Not Available
  • ‡ = Partner data that is not subject to review by the National Climate Archives
Date modified: